Location: Ellingshausen
(50.5460°N, 10.4723°E)
Time: 12:41:35
(UTC+00:00)

Cosmos 676 Rocket - Pass Details

Date: 15 April 2026
Orbit: 750 x 779 km, 74.0° (Epoch: 19 May)

Event Time Altitude Azimuth Distance (km) Brightness Sun altitude
Rises 00:35:23 0° 329° (NNW) 3,268 7.8 -27.5°
Reaches altitude 10° 00:38:00 10° 319° (NW) 2,332 6.8 -27.3°
Enters shadow 00:40:52 25° 293° (WNW) 1,512 5.5 -27.1°
